WetterOnline ( http://www.wetteronline.de )

Wetter aktuell Grosseto

Aktuelles Wetter: Grosseto (7m)

6-stündlich | Neueste Meldungen
Ortszeit Temperatur Wetter
Fr, 19.01. 19:00 8.0° C wolkig
Fr, 19.01. 13:00 7.8° C wolkig
Fr, 19.01. 7:00 2.0° C leicht bewölkt
Fr, 19.01. 1:00 2.6° C wolkenlos
Do, 18.01. 19:00 9.0° C leicht bewölkt
Do, 18.01. 13:00 11.0° C leicht bewölkt
Do, 18.01. 7:00 -0.2° C wolkenlos
Do, 18.01. 1:00 2.8° C wolkenlos
Ortszeit Temperatur Wetter
Fr, 19.01. 23:00 7.2° C leicht bewölkt
Fr, 19.01. 22:55 7° C leicht bewölkt
Fr, 19.01. 22:00 7.0° C leicht bewölkt
Fr, 19.01. 21:55 7° C leicht bewölkt
Fr, 19.01. 21:00 7.6° C wolkig
Fr, 19.01. 20:55 8° C leicht bewölkt
Fr, 19.01. 20:00 7.4° C wolkig
Fr, 19.01. 19:55 7° C leicht bewölkt
Fr, 19.01. 19:00 8.0° C wolkig
Ortszeit Relative Feuchte Sichtweite
Fr, 19.01. 19:00 87% 10 km
Fr, 19.01. 13:00 84% 12 km
Fr, 19.01. 7:00 87% 15 km
Fr, 19.01. 1:00 92% 10 km
Do, 18.01. 19:00 76% 20 km
Do, 18.01. 13:00 41% 30 km
Do, 18.01. 7:00 78% 30 km
Do, 18.01. 1:00 74% 30 km
Ortszeit Relative Feuchte Sichtweite
Fr, 19.01. 23:00 83% 20 km
Fr, 19.01. 22:55 87% >10 km
Fr, 19.01. 22:00 85% 15 km
Fr, 19.01. 21:55 87% >10 km
Fr, 19.01. 21:00 87% 12 km
Fr, 19.01. 20:55 87% >10 km
Fr, 19.01. 20:00 87% 10 km
Fr, 19.01. 19:55 87% >10 km
Fr, 19.01. 19:00 87% 10 km
Ortszeit Niederschlagsmenge Niederschlagsart
Fr, 19.01. 19:00 0.0 l/m2 in 12 Std. -
Fr, 19.01. 13:00 0.0 l/m2 in 6 Std. -
Fr, 19.01. 7:00 0.0 l/m2 in 12 Std. -
Fr, 19.01. 1:00 0.0 l/m2 in 6 Std. -
Do, 18.01. 19:00 0.0 l/m2 in 12 Std. -
Do, 18.01. 13:00 0.0 l/m2 in 6 Std. -
Do, 18.01. 7:00 0.0 l/m2 in 12 Std. -
Do, 18.01. 1:00 0.0 l/m2 in 6 Std. -
Ortszeit Niederschlagsmenge Niederschlagsart
Fr, 19.01. 23:00 keine Meldung -
Fr, 19.01. 22:55 keine Meldung -
Fr, 19.01. 22:00 keine Meldung -
Fr, 19.01. 21:55 keine Meldung -
Fr, 19.01. 21:00 keine Meldung -
Fr, 19.01. 20:55 keine Meldung -
Fr, 19.01. 20:00 keine Meldung -
Fr, 19.01. 19:55 keine Meldung -
Fr, 19.01. 19:00 keine Meldung -
Ortszeit Stärke Spitze Richtung
km/h Bft. km/h Grad Sektor
Fr, 19.01. 19:00 13 3 - 350° N
Fr, 19.01. 13:00 9 2 - 10° N
Fr, 19.01. 7:00 9 2 - 60° NO
Fr, 19.01. 1:00 7 2 - 360° N
Do, 18.01. 19:00 4 1 - 360° N
Do, 18.01. 13:00 11 2 - 140° SO
Do, 18.01. 7:00 9 2 - 50° NO
Do, 18.01. 1:00 9 2 - 100° O
Ortszeit Stärke Spitze Richtung
km/h Bft. km/h Grad Sektor
Fr, 19.01. 23:00 6 1 - 110° O
Fr, 19.01. 22:55 6 1 - 110° O
Fr, 19.01. 22:00 4 1 - uml. uml.
Fr, 19.01. 21:55 4 1 - uml. uml.
Fr, 19.01. 21:00 7 2 - 70° O
Fr, 19.01. 20:55 7 2 - 70° O
Fr, 19.01. 20:00 6 1 - 50° NO
Fr, 19.01. 19:55 6 1 - 50° NO
Fr, 19.01. 19:00 13 3 - 350° N
Ortszeit Untergrenze Bedeckung Gattung
total tief tief mittel hoch
Fr, 19.01. 19:00 540 m 6/8 2/8 Cu As Ci
Fr, 19.01. 13:00 540 m 7/8 2/8 Cu As Ci
Fr, 19.01. 7:00 6000 m 3/8 3/8 - - Ci
Fr, 19.01. 1:00 - 0/8 0/8 - - -
Do, 18.01. 19:00 3000 m 2/8 2/8 - Ac -
Do, 18.01. 13:00 - 5/8 0/8 - - Ci
Do, 18.01. 7:00 - 0/8 0/8 - - -
Do, 18.01. 1:00 - 0/8 0/8 - - -
Ortszeit Bedeckungsgrad in Achtel und Wolkenuntergrenze
Fr, 19.01. 23:00 4(1200m)
Fr, 19.01. 22:55 3-4(1200m)
Fr, 19.01. 22:00 3(1200m)
Fr, 19.01. 21:55 3-4(1200m)
Fr, 19.01. 21:00 3(540m) 3(2400m)
Fr, 19.01. 20:55 3-4(540m)
Fr, 19.01. 20:00 2(540m) 3(2400m)
Fr, 19.01. 19:55 1-2(540m)
Fr, 19.01. 19:00 2(540m) 3(2400m)
Ortszeit Luftdruck NN (hPa) Tendenz (hPa in 3 Std.)
Fr, 19.01. 19:00 1012 + 0,5
Fr, 19.01. 13:00 1012 - 0,3
Fr, 19.01. 7:00 1013 - 1,3
Fr, 19.01. 1:00 1016 - 1,1
Do, 18.01. 19:00 1017 - 0,6
Do, 18.01. 13:00 1019 - 1,9
Do, 18.01. 7:00 1019 + 0,5
Do, 18.01. 1:00 1018 + 2,4
Ortszeit Luftdruck NN (hPa) Tendenz (hPa in 3 Std.)
Fr, 19.01. 23:00 1012 + 0,4
Fr, 19.01. 22:55 1012 keine Meldung
Fr, 19.01. 22:00 1012 + 0,6
Fr, 19.01. 21:55 1012 keine Meldung
Fr, 19.01. 21:00 1012 + 0,9
Fr, 19.01. 20:55 1011 keine Meldung
Fr, 19.01. 20:00 1012 + 0,7
Fr, 19.01. 19:55 1011 keine Meldung
Fr, 19.01. 19:00 1012 + 0,5
Ortszeit Schneehöhe (cm)
Fr, 19.01. 19:00 -
Fr, 19.01. 13:00 -
Fr, 19.01. 7:00 0
Fr, 19.01. 1:00 -
Do, 18.01. 19:00 -
Do, 18.01. 13:00 -
Do, 18.01. 7:00 0
Do, 18.01. 1:00 -
Ortszeit Schneehöhe (cm)
Fr, 19.01. 23:00 -
Fr, 19.01. 22:55 -
Fr, 19.01. 22:00 -
Fr, 19.01. 21:55 -
Fr, 19.01. 21:00 -
Fr, 19.01. 20:55 -
Fr, 19.01. 20:00 -
Fr, 19.01. 19:55 -
Fr, 19.01. 19:00 -
Link zu dieser Seite / Seite empfehlen

Das Wetter in ...